SWA2779 KMCO-KFLL

Flight info

Callsign SWA2779
Flight time 0h 40m
Altitude 25000
Route DDANY3 JIPOD CUUDA3
Aircraft B738/M-SDE2E3FGHIRWXY/LB1

Departure

Time 2026-04-22 00:55
Airport Orlando International Airport (KMCO)

Arrival

Time 2026-04-22 01:35
Airport Fort Lauderdale Hollywood International Airport (KFLL)
Time Latitude Longitude Altitude Speed Heading
2026-04-22 00:28 28.43407 -81.30125 100 ft 0 kts 61°
2026-04-22 00:42 28.43400 -81.30141 100 ft 2 kts 61°
2026-04-22 00:42 28.43392 -81.30157 98 ft 2 kts 61°
2026-04-22 00:42 28.43384 -81.30173 98 ft 2 kts 61°
2026-04-22 00:42 28.43376 -81.30189 99 ft 2 kts 61°
2026-04-22 00:43 28.43376 -81.30190 99 ft 0 kts 61°
2026-04-22 00:46 28.43376 -81.30188 99 ft 0 kts 77°
2026-04-22 00:46 28.43374 -81.30185 99 ft 0 kts 111°
2026-04-22 00:46 28.43357 -81.30173 99 ft 8 kts 147°
2026-04-22 00:46 28.43295 -81.30113 100 ft 13 kts 120°
2026-04-22 00:47 28.43284 -81.30013 100 ft 13 kts 81°
2026-04-22 00:47 28.43295 -81.29971 99 ft 0 kts 70°
2026-04-22 00:47 28.43296 -81.29969 98 ft 1 kts 70°
2026-04-22 00:48 28.43306 -81.29940 100 ft 7 kts 70°
2026-04-22 00:48 28.43331 -81.29868 100 ft 12 kts 69°
2026-04-22 00:48 28.43284 -81.29804 101 ft 14 kts 177°
2026-04-22 00:48 28.43167 -81.29802 102 ft 18 kts 179°
2026-04-22 00:49 28.43097 -81.29801 102 ft 5 kts 179°
2026-04-22 00:49 28.43063 -81.29800 102 ft 6 kts 179°
2026-04-22 00:49 28.43005 -81.29800 102 ft 11 kts 180°
2026-04-22 00:49 28.42905 -81.29799 102 ft 17 kts 179°
2026-04-22 00:50 28.42765 -81.29797 102 ft 23 kts 179°
2026-04-22 00:50 28.42591 -81.29795 102 ft 27 kts 179°
2026-04-22 00:50 28.42410 -81.29794 101 ft 25 kts 179°
2026-04-22 00:50 28.42241 -81.29792 101 ft 23 kts 180°
2026-04-22 00:51 28.42082 -81.29790 101 ft 23 kts 179°
2026-04-22 00:51 28.41927 -81.29790 101 ft 22 kts 180°
2026-04-22 00:51 28.41776 -81.29787 101 ft 21 kts 180°
2026-04-22 00:51 28.41630 -81.29786 101 ft 21 kts 179°
2026-04-22 00:52 28.41490 -81.29785 101 ft 20 kts 181°
2026-04-22 00:52 28.41353 -81.29783 100 ft 19 kts 179°
2026-04-22 00:52 28.41220 -81.29781 100 ft 19 kts 180°
2026-04-22 00:52 28.41092 -81.29780 100 ft 18 kts 179°
2026-04-22 00:53 28.40968 -81.29778 99 ft 18 kts 180°
2026-04-22 00:53 28.40848 -81.29773 99 ft 17 kts 160°
2026-04-22 00:53 28.40821 -81.29656 99 ft 16 kts 89°
2026-04-22 00:53 28.40863 -81.29560 98 ft 16 kts
2026-04-22 00:54 28.41024 -81.29561 98 ft 46 kts 360°
2026-04-22 00:54 28.41567 -81.29567 105 ft 108 kts 359°
2026-04-22 00:54 28.42494 -81.29574 164 ft 150 kts 360°
2026-04-22 00:54 28.43593 -81.29578 490 ft 169 kts
2026-04-22 00:55 28.44850 -81.29430 697 ft 196 kts 23°
2026-04-22 00:55 28.46075 -81.28687 1078 ft 206 kts 37°
2026-04-22 00:55 28.47901 -81.25882 2044 ft 237 kts 59°
2026-04-22 00:56 28.48820 -81.24297 2986 ft 244 kts 59°
2026-04-22 00:56 28.49755 -81.22679 3986 ft 245 kts 59°
2026-04-22 00:56 28.50509 -81.20943 4676 ft 247 kts 75°
2026-04-22 00:56 28.50842 -81.19034 4992 ft 249 kts 79°
2026-04-22 00:57 28.51114 -81.17090 4997 ft 254 kts 86°
2026-04-22 00:57 28.50838 -81.15101 5209 ft 259 kts 103°
2026-04-22 00:57 28.50366 -81.13105 6040 ft 263 kts 102°
2026-04-22 00:57 28.49897 -81.11064 6858 ft 271 kts 102°
2026-04-22 00:58 28.49422 -81.08981 7741 ft 273 kts 102°
2026-04-22 00:58 28.48942 -81.06867 8593 ft 278 kts 102°
2026-04-22 00:58 28.48195 -81.04810 9382 ft 288 kts 125°
2026-04-22 00:58 28.46757 -81.03194 10241 ft 294 kts 139°
2026-04-22 00:59 28.45108 -81.01686 10600 ft 317 kts 140°
2026-04-22 00:59 28.43300 -81.00070 10808 ft 343 kts 140°
2026-04-22 00:59 28.41372 -80.98348 11210 ft 359 kts 140°
2026-04-22 00:59 28.39397 -80.96575 11914 ft 364 kts 140°
2026-04-22 01:00 28.37411 -80.94781 12704 ft 367 kts 140°
2026-04-22 01:00 28.35408 -80.92963 13377 ft 373 kts 141°
2026-04-22 01:00 28.33369 -80.91109 13941 ft 378 kts 140°
2026-04-22 01:00 28.31327 -80.89253 13980 ft 376 kts 140°
2026-04-22 01:01 28.29289 -80.87394 13995 ft 377 kts 139°
2026-04-22 01:01 28.27568 -80.85152 13985 ft 378 kts 117°
2026-04-22 01:01 28.26496 -80.82447 13998 ft 378 kts 111°
2026-04-22 01:01 28.25535 -80.79671 13987 ft 379 kts 110°
2026-04-22 01:02 28.24579 -80.76885 13990 ft 379 kts 111°
2026-04-22 01:02 28.23600 -80.74087 14348 ft 384 kts 110°
2026-04-22 01:02 28.22594 -80.71267 14999 ft 387 kts 111°
2026-04-22 01:02 28.21578 -80.68444 15734 ft 389 kts 111°
2026-04-22 01:03 28.20584 -80.65647 16333 ft 393 kts 110°
2026-04-22 01:03 28.19586 -80.62664 16961 ft 398 kts 110°
2026-04-22 01:03 28.18628 -80.59729 17444 ft 405 kts 109°
2026-04-22 01:03 28.17648 -80.56717 18089 ft 409 kts 110°
2026-04-22 01:04 28.16655 -80.53680 18694 ft 413 kts 110°
2026-04-22 01:04 28.15640 -80.50599 19119 ft 420 kts 110°
2026-04-22 01:04 28.14613 -80.47493 19696 ft 423 kts 110°
2026-04-22 01:04 28.13572 -80.44352 20147 ft 430 kts 110°
2026-04-22 01:05 28.12511 -80.41156 20613 ft 436 kts 110°
2026-04-22 01:05 28.11437 -80.37925 21092 ft 441 kts 110°
2026-04-22 01:05 28.10166 -80.34747 21534 ft 447 kts 124°
2026-04-22 01:05 28.08059 -80.32144 21995 ft 449 kts 143°
2026-04-22 01:06 28.05393 -80.30339 22484 ft 448 kts 161°
2026-04-22 01:06 28.03452 -80.29534 22815 ft 449 kts 164°
2026-04-22 01:06 28.00476 -80.28403 23272 ft 452 kts 165°
2026-04-22 01:06 27.97476 -80.27292 23737 ft 456 kts 166°
2026-04-22 01:07 27.94449 -80.26162 24112 ft 460 kts 165°
2026-04-22 01:07 27.91409 -80.25007 24530 ft 462 kts 165°
2026-04-22 01:07 27.88362 -80.23831 25008 ft 463 kts 165°
2026-04-22 01:07 27.85303 -80.22639 25278 ft 466 kts 165°
2026-04-22 01:08 27.82211 -80.21431 25290 ft 475 kts 165°
2026-04-22 01:08 27.79065 -80.20201 25301 ft 481 kts 165°
2026-04-22 01:08 27.75902 -80.18963 25292 ft 480 kts 165°
2026-04-22 01:08 27.72750 -80.17730 25284 ft 478 kts 165°
2026-04-22 01:09 27.69607 -80.16502 25286 ft 477 kts 165°
2026-04-22 01:09 27.66470 -80.15280 25285 ft 477 kts 165°
2026-04-22 01:09 27.63331 -80.14059 25293 ft 478 kts 165°
2026-04-22 01:09 27.60185 -80.12820 25295 ft 479 kts 164°
2026-04-22 01:10 27.57089 -80.11553 25289 ft 480 kts 163°
2026-04-22 01:10 27.53954 -80.10248 25289 ft 481 kts 163°
2026-04-22 01:10 27.50810 -80.08937 25289 ft 482 kts 163°
2026-04-22 01:10 27.47662 -80.07630 25286 ft 482 kts 163°
2026-04-22 01:11 27.44511 -80.06329 25286 ft 482 kts 163°
2026-04-22 01:11 27.41391 -80.05046 25280 ft 482 kts 163°
2026-04-22 01:11 27.38377 -80.03812 25278 ft 482 kts 164°
2026-04-22 01:11 27.35182 -80.02705 25273 ft 479 kts 169°
2026-04-22 01:12 27.31965 -80.01772 25280 ft 478 kts 170°
2026-04-22 01:12 27.28851 -80.00883 25280 ft 478 kts 169°
2026-04-22 01:12 27.25622 -79.99924 25275 ft 478 kts 168°
2026-04-22 01:12 27.22428 -79.98872 24618 ft 480 kts 166°
2026-04-22 01:13 27.19279 -79.97710 24062 ft 470 kts 165°
2026-04-22 01:13 27.16223 -79.96550 23311 ft 459 kts 165°
2026-04-22 01:13 27.13216 -79.95427 22588 ft 448 kts 165°
2026-04-22 01:13 27.10296 -79.94362 21992 ft 435 kts 165°
2026-04-22 01:14 27.07456 -79.93338 21451 ft 422 kts 165°
2026-04-22 01:14 27.04738 -79.92331 20937 ft 411 kts 163°
2026-04-22 01:14 27.02079 -79.91263 20433 ft 401 kts 162°
2026-04-22 01:14 26.99484 -79.90192 19947 ft 394 kts 162°
2026-04-22 01:15 26.96930 -79.89141 19464 ft 388 kts 162°
2026-04-22 01:15 26.94419 -79.88114 18987 ft 381 kts 161°
2026-04-22 01:15 26.91922 -79.87100 18495 ft 383 kts 161°
2026-04-22 01:15 26.89400 -79.86083 17972 ft 388 kts 162°
2026-04-22 01:16 26.86858 -79.85061 17468 ft 386 kts 162°
2026-04-22 01:16 26.84343 -79.84048 16965 ft 380 kts 161°
2026-04-22 01:16 26.81874 -79.83054 16476 ft 372 kts 161°
2026-04-22 01:16 26.79464 -79.82084 16012 ft 363 kts 161°
2026-04-22 01:17 26.77112 -79.81139 15571 ft 356 kts 161°
2026-04-22 01:17 26.74804 -79.80212 15137 ft 350 kts 161°
2026-04-22 01:17 26.72560 -79.79313 14719 ft 346 kts 162°
2026-04-22 01:17 26.70190 -79.78802 14269 ft 342 kts 181°
2026-04-22 01:18 26.67869 -79.79104 13855 ft 342 kts 197°
2026-04-22 01:18 26.65613 -79.79966 13415 ft 343 kts 201°
2026-04-22 01:18 26.63388 -79.80922 12950 ft 341 kts 203°
2026-04-22 01:18 26.61183 -79.81866 12511 ft 338 kts 202°
2026-04-22 01:19 26.58983 -79.82782 12085 ft 335 kts 201°
2026-04-22 01:19 26.56804 -79.83675 11664 ft 331 kts 201°
2026-04-22 01:19 26.54658 -79.84558 11258 ft 326 kts 202°
2026-04-22 01:19 26.52564 -79.85517 10841 ft 321 kts 204°
2026-04-22 01:20 26.50538 -79.86488 10445 ft 314 kts 204°
2026-04-22 01:20 26.48558 -79.87440 10053 ft 306 kts 204°
2026-04-22 01:20 26.46641 -79.88354 9928 ft 289 kts 204°
2026-04-22 01:20 26.44785 -79.89234 9322 ft 292 kts 203°
2026-04-22 01:21 26.42954 -79.90096 8910 ft 288 kts 203°
2026-04-22 01:21 26.41124 -79.90956 8554 ft 283 kts 203°
2026-04-22 01:21 26.39320 -79.91802 8194 ft 281 kts 202°
2026-04-22 01:21 26.37527 -79.92698 7964 ft 281 kts 208°
2026-04-22 01:22 26.35835 -79.93773 7804 ft 279 kts 211°
2026-04-22 01:22 26.34174 -79.94883 7634 ft 278 kts 211°
2026-04-22 01:22 26.32513 -79.95983 7474 ft 278 kts 210°
2026-04-22 01:22 26.30838 -79.97072 7324 ft 280 kts 210°
2026-04-22 01:23 26.29146 -79.98163 7165 ft 280 kts 210°
2026-04-22 01:23 26.27455 -79.99249 7008 ft 281 kts 210°
2026-04-22 01:23 26.25750 -80.00345 6849 ft 283 kts 210°
2026-04-22 01:23 26.24049 -80.01439 6693 ft 282 kts 210°
2026-04-22 01:24 26.22352 -80.02530 6505 ft 281 kts 210°
2026-04-22 01:24 26.20664 -80.03613 6344 ft 279 kts 209°
2026-04-22 01:24 26.18999 -80.04712 6179 ft 277 kts 216°
2026-04-22 01:24 26.17758 -80.06305 6016 ft 273 kts 244°
2026-04-22 01:25 26.17084 -80.08271 5901 ft 273 kts 253°
2026-04-22 01:25 26.16498 -80.10300 5736 ft 277 kts 253°
2026-04-22 01:25 26.15892 -80.12367 5588 ft 282 kts 252°
2026-04-22 01:25 26.15277 -80.14434 5424 ft 286 kts 252°
2026-04-22 01:26 26.14910 -80.16597 5232 ft 285 kts 270°
2026-04-22 01:26 26.14944 -80.18782 5107 ft 280 kts 273°
2026-04-22 01:26 26.14990 -80.20900 5029 ft 266 kts 272°
2026-04-22 01:26 26.15022 -80.22886 4859 ft 249 kts 272°
2026-04-22 01:27 26.15043 -80.24763 4650 ft 234 kts 272°
2026-04-22 01:27 26.15059 -80.26518 4491 ft 220 kts 272°
2026-04-22 01:27 26.15069 -80.28184 4371 ft 213 kts 272°
2026-04-22 01:27 26.15078 -80.29829 4294 ft 212 kts 272°
2026-04-22 01:28 26.15086 -80.31469 4190 ft 212 kts 272°
2026-04-22 01:28 26.15093 -80.33116 4067 ft 213 kts 272°
2026-04-22 01:28 26.15094 -80.34763 3932 ft 214 kts 270°
2026-04-22 01:28 26.14633 -80.36343 3670 ft 217 kts 227°
2026-04-22 01:29 26.13432 -80.37207 3549 ft 201 kts 187°
2026-04-22 01:29 26.12098 -80.37175 3450 ft 189 kts 156°
2026-04-22 01:29 26.10958 -80.36508 3354 ft 184 kts 135°
2026-04-22 01:29 26.09970 -80.35612 3233 ft 180 kts 134°
2026-04-22 01:30 26.09031 -80.34761 3108 ft 168 kts 133°
2026-04-22 01:30 26.08202 -80.33886 2968 ft 159 kts 114°
2026-04-22 01:30 26.08037 -80.32738 2840 ft 153 kts 86°
2026-04-22 01:30 26.07942 -80.31555 2638 ft 157 kts 94°
2026-04-22 01:31 26.07826 -80.30339 2408 ft 159 kts 91°
2026-04-22 01:31 26.07783 -80.29144 2212 ft 147 kts 89°
2026-04-22 01:31 26.07767 -80.28065 2028 ft 133 kts 88°
2026-04-22 01:31 26.07759 -80.27043 1862 ft 132 kts 87°
2026-04-22 01:32 26.07753 -80.26015 1679 ft 134 kts 86°
2026-04-22 01:32 26.07746 -80.24971 1500 ft 136 kts 86°
2026-04-22 01:32 26.07740 -80.23915 1315 ft 137 kts 86°
2026-04-22 01:32 26.07733 -80.22860 1135 ft 137 kts 88°
2026-04-22 01:33 26.07723 -80.21812 1038 ft 134 kts 88°
2026-04-22 01:33 26.07702 -80.20770 801 ft 139 kts 87°
2026-04-22 01:33 26.07700 -80.19672 644 ft 142 kts 87°
2026-04-22 01:33 26.07706 -80.18569 437 ft 144 kts 86°
2026-04-22 01:34 26.07701 -80.17454 229 ft 143 kts 89°
2026-04-22 01:34 26.07694 -80.16390 93 ft 133 kts 86°
2026-04-22 01:34 26.07689 -80.15433 17 ft 113 kts 91°
2026-04-22 01:34 26.07683 -80.14798 24 ft 52 kts 91°
2026-04-22 01:35 26.07680 -80.14561 23 ft 23 kts 91°
2026-04-22 01:35 26.07625 -80.14398 30 ft 22 kts 121°
2026-04-22 01:35 26.07611 -80.14378 28 ft 5 kts 152°
2026-04-22 01:35 26.07558 -80.14443 27 ft 20 kts 254°
2026-04-22 01:36 26.07493 -80.14538 25 ft 15 kts 249°
2026-04-22 01:36 26.07489 -80.14649 24 ft 14 kts 270°
2026-04-22 01:36 26.07485 -80.14760 22 ft 15 kts 252°
2026-04-22 01:36 26.07404 -80.14849 20 ft 18 kts 198°
2026-04-22 01:37 26.07276 -80.14853 21 ft 19 kts 179°
2026-04-22 01:37 26.07136 -80.14855 20 ft 21 kts 181°
2026-04-22 01:37 26.07009 -80.14775 18 ft 23 kts 135°
2026-04-22 01:37 26.06891 -80.14668 17 ft 22 kts 136°
2026-04-22 01:38 26.06782 -80.14553 15 ft 21 kts 137°
2026-04-22 01:38 26.06752 -80.14402 17 ft 21 kts 90°
2026-04-22 01:38 26.06750 -80.14245 17 ft 20 kts 89°
2026-04-22 01:38 26.06768 -80.14101 17 ft 14 kts 48°
2026-04-22 01:39 26.06844 -80.14137 17 ft 13 kts 326°
2026-04-22 01:39 26.06901 -80.14176 18 ft 0 kts 328°